| time (UTC) | temp F | wind direction | speed MPH | gust MPH | rain 1hr in | rain 24hr in | rain mn in | humidity % | barometer mb |
| 20260502195436 | 66 | 0.0 | 0.0 | 0.00 | 0.00 | 0.00 | 32 | 727.3 | |
| 20260502193924 | 66 | 0.0 | 0.0 | 0.00 | 0.00 | 0.00 | 33 | 727.2 | |
| 20260502190901 | 69 | 0.0 | 0.0 | 0.00 | 0.00 | 0.00 | 31 | 729.1 | |
| 20260502185349 | 70 | 0.0 | 0.0 | 0.00 | 0.00 | 0.00 | 29 | 729.9 | |
| 20260502183837 | 71 | 0.0 | 0.0 | 0.00 | 0.00 | 0.00 | 28 | 730.5 | |
| 20260502182326 | 72 | 0.0 | 0.0 | 0.00 | 0.00 | 0.00 | 27 | 731.4 | |
| 20260502180814 | 75 | 0.0 | 0.0 | 0.00 | 0.00 | 0.00 | 24 | 733.5 | |
| 20260502163703 | 102 | 0.0 | 0.0 | 0.00 | 0.00 | 0.00 | 11 | 750.4 | |
| 20260502162152 | 102 | 0.0 | 0.0 | 0.00 | 0.00 | 0.00 | 10 | 750.4 | |
| 20260502160640 | 102 | 0.0 | 0.0 | 0.00 | 0.00 | 0.00 | 11 | 750.5 | |
| 20260502152105 | 10 | 0.0 | 0.0 | 0.00 | 0.00 | 0.00 | 10 | 749.1 | |
| 20260502130419 | 89 | 0.0 | 0.0 | 0.00 | 0.00 | 0.00 | 18 | 742.2 | |
| 20260502123355 | 87 | 0.0 | 0.0 | 0.00 | 0.00 | 0.00 | 21 | 741.1 | |
| 20260502121843 | 84 | 0.0 | 0.0 | 0.00 | 0.00 | 0.00 | 20 | 739.2 | |
| 20260502120332 | 83 | 0.0 | 0.0 | 0.00 | 0.00 | 0.00 | 20 | 738.6 | |
| 20260502114820 | 82 | 0.0 | 0.0 | 0.00 | 0.00 | 0.00 | 23 | 737.6 | |
| 20260502113308 | 80 | 0.0 | 0.0 | 0.00 | 0.00 | 0.00 | 22 | 736.5 | |
| 20260502111756 | 78 | 0.0 | 0.0 | 0.00 | 0.00 | 0.00 | 24 | 735.5 | |
| 20260502110245 | 77 | 0.0 | 0.0 | 0.00 | 0.00 | 0.00 | 28 | 734.7 | |
| 20260502104733 | 76 | 0.0 | 0.0 | 0.00 | 0.00 | 0.00 | 31 | 733.9 | |
| 20260502103221 | 74 | 0.0 | 0.0 | 0.00 | 0.00 | 0.00 | 33 | 733.1 | |
| 20260502101709 | 73 | 0.0 | 0.0 | 0.00 | 0.00 | 0.00 | 34 | 732.3 | |
| 20260502100158 | 72 | 0.0 | 0.0 | 0.00 | 0.00 | 0.00 | 38 | 731.7 | |
| 20260502090111 | 67 | 0.0 | 0.0 | 0.00 | 0.00 | 0.00 | 47 | 728.2 | |
| 20260502071449 | 55 | 0.0 | 0.0 | 0.00 | 0.00 | 0.00 | 63 | 720.9 | |
| 20260502065937 | 54 | 0.0 | 0.0 | 0.00 | 0.00 | 0.00 | 65 | 720.3 | |
| 20260502064425 | 54 | 0.0 | 0.0 | 0.00 | 0.00 | 0.00 | 66 | 719.7 | |
| 20260501200611 | 56 | 0.0 | 0.0 | 0.00 | 0.00 | 0.00 | 53 | 721.5 |